TimeEDT,TemperatureF,Dew PointF,Humidity,Sea Level PressureIn,VisibilityMPH,Wind Direction,Wind SpeedMPH,Gust SpeedMPH,PrecipitationIn,Events,Conditions,WindDirDegrees,DateUTC
12:56 AM,71.1,66.9,87,29.91,8.0,SSE,3.5,-,N/A,,Overcast,160,2013-07-28 04:56:00
1:56 AM,70.0,66.9,90,29.91,8.0,SSE,4.6,-,0.01,,Overcast,160,2013-07-28 05:56:00
2:56 AM,70.0,66.9,90,29.89,8.0,SSE,5.8,-,N/A,,Overcast,160,2013-07-28 06:56:00
3:56 AM,71.1,66.9,87,29.89,8.0,South,6.9,-,N/A,,Overcast,170,2013-07-28 07:56:00
4:56 AM,71.1,66.9,87,29.90,8.0,SSE,5.8,-,N/A,,Overcast,160,2013-07-28 08:56:00
5:56 AM,70.0,66.9,90,29.91,8.0,SSE,6.9,-,N/A,,Overcast,160,2013-07-28 09:56:00
6:56 AM,70.0,66.9,90,29.92,7.0,SE,4.6,-,N/A,,Overcast,140,2013-07-28 10:56:00
7:24 AM,71.6,66.2,83,29.93,7.0,SSE,5.8,-,N/A,,Overcast,160,2013-07-28 11:24:00
7:40 AM,71.6,66.2,83,29.92,7.0,SSE,6.9,-,N/A,,Overcast,150,2013-07-28 11:40:00
7:56 AM,71.1,66.9,87,29.92,8.0,SSE,6.9,-,N/A,,Overcast,160,2013-07-28 11:56:00
8:56 AM,72.0,68.0,87,29.92,8.0,SSE,5.8,-,0.00,Rain,Light Rain,160,2013-07-28 12:56:00
9:01 AM,71.6,68.0,88,29.92,8.0,SSE,6.9,-,0.00,Rain,Light Rain,160,2013-07-28 13:01:00
9:04 AM,71.6,68.0,88,29.92,8.0,SSE,6.9,-,0.00,Rain,Light Rain,160,2013-07-28 13:04:00
9:56 AM,72.0,68.0,87,29.90,8.0,Calm,Calm,-,0.00,,Overcast,0,2013-07-28 13:56:00
10:26 AM,73.4,68.0,83,29.91,8.0,South,5.8,-,N/A,,Mostly Cloudy,180,2013-07-28 14:26:00
10:34 AM,73.4,68.0,83,29.90,9.0,SSW,8.1,-,N/A,,Mostly Cloudy,200,2013-07-28 14:34:00
10:48 AM,73.4,68.0,83,29.91,9.0,SSW,6.9,-,N/A,,Mostly Cloudy,210,2013-07-28 14:48:00
10:56 AM,73.9,68.0,82,29.91,9.0,SW,6.9,-,N/A,,Mostly Cloudy,220,2013-07-28 14:56:00
11:56 AM,75.0,68.0,79,29.91,10.0,South,8.1,-,N/A,,Overcast,180,2013-07-28 15:56:00
12:48 PM,75.2,68.0,78,29.93,10.0,SSW,8.1,-,0.00,,Overcast,200,2013-07-28 16:48:00
12:56 PM,75.0,68.0,79,29.93,10.0,SSW,6.9,-,0.00,,Overcast,200,2013-07-28 16:56:00
1:56 PM,77.0,69.1,76,29.91,10.0,SSW,8.1,-,0.00,,Mostly Cloudy,200,2013-07-28 17:56:00
2:56 PM,78.1,66.0,66,29.89,10.0,WSW,9.2,-,N/A,,Mostly Cloudy,240,2013-07-28 18:56:00
3:56 PM,80.1,66.9,64,29.88,10.0,SW,6.9,-,0.00,,Scattered Clouds,230,2013-07-28 19:56:00
4:56 PM,82.0,61.0,49,29.88,10.0,SSW,6.9,-,N/A,,Scattered Clouds,210,2013-07-28 20:56:00
5:56 PM,80.1,64.9,60,29.89,10.0,SW,8.1,-,N/A,,Mostly Cloudy,220,2013-07-28 21:56:00
6:56 PM,81.0,64.9,58,29.89,10.0,SSW,4.6,-,N/A,,Overcast,200,2013-07-28 22:56:00
7:56 PM,75.9,68.0,76,29.90,10.0,SE,3.5,-,N/A,,Scattered Clouds,130,2013-07-28 23:56:00
8:56 PM,75.0,66.9,76,29.92,10.0,Calm,Calm,-,N/A,,Scattered Clouds,0,2013-07-29 00:56:00
9:56 PM,73.0,66.0,79,29.93,10.0,Calm,Calm,-,N/A,,Mostly Cloudy,0,2013-07-29 01:56:00
10:56 PM,73.9,66.0,76,29.95,10.0,Calm,Calm,-,N/A,,Overcast,0,2013-07-29 02:56:00
11:56 PM,72.0,66.9,84,29.97,10.0,Calm,Calm,-,N/A,,Overcast,0,2013-07-29 03:56:00